
SB KEPS @ AMSAT $ORB11181.O Orbital Elements 11181.OSCAR
HR AMSAT ORBITAL ELEMENTS FOR OSCAR SATELLITES FROM WA5QGD FORT WORTH,TX June 30, 2011 Send Subscribe/unsubscribe to KEPS at http://www.amsat.org/mailman/listinfo/keps BID: ORB11181.O TO ALL RADIO AMATEURS BT
Satellite: AO-07 Catalog number: 07530 Epoch time: 11180.04716725 Element set: 115 Inclination: 101.3913 deg RA of node: 186.1199 deg Eccentricity: 0.0011599 Arg of perigee: 255.9795 deg Mean anomaly: 103.9989 deg Mean motion: 12.53582906 rev/day Decay rate: -2.7e-07 rev/day^2 Epoch rev: 67567 Checksum: 324
Satellite: FO-29 Catalog number: 24278 Epoch time: 11180.92255454 Element set: 0628 Inclination: 098.5465 deg RA of node: 323.3324 deg Eccentricity: 0.0349886 Arg of perigee: 224.0866 deg Mean anomaly: 133.1884 deg Mean motion: 13.52962946 rev/day Decay rate: 5.0e-08 rev/day^2 Epoch rev: 73418 Checksum: 335
Satellite: SO-33 Catalog number: 25509 Epoch time: 11180.39481272 Element set: 0001 Inclination: 031.4330 deg RA of node: 175.2627 deg Eccentricity: 0.0353458 Arg of perigee: 348.2821 deg Mean anomaly: 010.9753 deg Mean motion: 14.28425161 rev/day Decay rate: 4.19e-06 rev/day^2 Epoch rev: 66202 Checksum: 274
Satellite: RS-22 Catalog number: 27939 Epoch time: 11173.41873221 Element set: 375 Inclination: 097.8455 deg RA of node: 027.1667 deg Eccentricity: 0.0013195 Arg of perigee: 334.0207 deg Mean anomaly: 026.0333 deg Mean motion: 14.63600221 rev/day Decay rate: 2.23e-06 rev/day^2 Epoch rev: 41310 Checksum: 263
Satellite: VO-52 Catalog number: 28650 Epoch time: 11180.78761517 Element set: 0834 Inclination: 097.6413 deg RA of node: 223.3552 deg Eccentricity: 0.0028052 Arg of perigee: 119.2063 deg Mean anomaly: 241.1925 deg Mean motion: 14.82098056 rev/day Decay rate: 1.93e-06 rev/day^2 Epoch rev: 33261 Checksum: 292
Satellite: SO-67 Catalog number: 35870 Epoch time: 11173.48427091 Element set: 958 Inclination: 097.2803 deg RA of node: 216.6678 deg Eccentricity: 0.0003077 Arg of perigee: 038.6822 deg Mean anomaly: 068.6193 deg Mean motion: 15.20809288 rev/day Decay rate: 1.238e-05 rev/day^2 Epoch rev: 9774 Checksum: 343
Satellite: HO-68 Catalog number: 36122 Epoch time: 11180.77997257 Element set: 0510 Inclination: 100.4149 deg RA of node: 241.4009 deg Eccentricity: 0.0007478 Arg of perigee: 193.1444 deg Mean anomaly: 166.9466 deg Mean motion: 13.16286943 rev/day Decay rate: -4.4e-07 rev/day^2 Epoch rev: 07389 Checksum: 317
/EX SB KEPS @ AMSAT $ORB11181.D Orbital Elements 11181.MICROS
HR AMSAT ORBITAL ELEMENTS FOR THE MICROSATS FROM WA5QGD FORT WORTH,TX June 30, 2011 Send Subscribe/unsubscribe to KEPS at http://www.amsat.org/mailman/listinfo/keps BID: ORB11181.D TO ALL RADIO AMATEURS BT
Satellite: UO-11 Catalog number: 14781 Epoch time: 11180.71429404 Element set: 0587 Inclination: 098.0055 deg RA of node: 237.3859 deg Eccentricity: 0.0010139 Arg of perigee: 096.1880 deg Mean anomaly: 264.0484 deg Mean motion: 14.79990904 rev/day Decay rate: 3.3e-07 rev/day^2 Epoch rev: 46764 Checksum: 319
Satellite: AO-16 Catalog number: 20439 Epoch time: 11180.87927047 Element set: 0236 Inclination: 098.3847 deg RA of node: 130.0730 deg Eccentricity: 0.0011526 Arg of perigee: 121.9063 deg Mean anomaly: 238.3240 deg Mean motion: 14.31926641 rev/day Decay rate: 6.0e-07 rev/day^2 Epoch rev: 11943 Checksum: 275
Satellite: LO-19 Catalog number: 20442 Epoch time: 11180.88690242 Element set: 136 Inclination: 098.3476 deg RA of node: 134.3836 deg Eccentricity: 0.0012812 Arg of perigee: 117.3047 deg Mean anomaly: 242.9440 deg Mean motion: 14.32151968 rev/day Decay rate: 7.5e-07 rev/day^2 Epoch rev: 11961 Checksum: 290
Satellite: AO-27 Catalog number: 22825 Epoch time: 11180.89065492 Element set: 0855 Inclination: 098.5310 deg RA of node: 125.0834 deg Eccentricity: 0.0007712 Arg of perigee: 234.5807 deg Mean anomaly: 125.4676 deg Mean motion: 14.29352594 rev/day Decay rate: -1.3e-07 rev/day^2 Epoch rev: 92600 Checksum: 303
Satellite: IO-26 Catalog number: 22826 Epoch time: 11180.95776374 Element set: 0620 Inclination: 098.5252 deg RA of node: 125.6182 deg Eccentricity: 0.0007950 Arg of perigee: 230.0201 deg Mean anomaly: 130.0283 deg Mean motion: 14.29615279 rev/day Decay rate: 4.7e-07 rev/day^2 Epoch rev: 92613 Checksum: 286
Satellite: GO-32 Catalog number: 25397 Epoch time: 11181.69166550 Element set: 516 Inclination: 098.3252 deg RA of node: 173.5308 deg Eccentricity: 0.0000578 Arg of perigee: 183.8819 deg Mean anomaly: 176.2345 deg Mean motion: 14.23211706 rev/day Decay rate: -6.8e-07 rev/day^2 Epoch rev: 67388 Checksum: 320
Satellite: NO-44 Catalog number: 26931 Epoch time: 11180.70338959 Element set: 0788 Inclination: 067.0533 deg RA of node: 311.2760 deg Eccentricity: 0.0006488 Arg of perigee: 255.8731 deg Mean anomaly: 104.1604 deg Mean motion: 14.29665893 rev/day Decay rate: -1.06e-06 rev/day^2 Epoch rev: 50871 Checksum: 316
Satellite: SO-50 Catalog number: 27607 Epoch time: 11180.83989068 Element set: 0503 Inclination: 064.5589 deg RA of node: 289.2262 deg Eccentricity: 0.0073788 Arg of perigee: 318.5972 deg Mean anomaly: 040.9565 deg Mean motion: 14.71764757 rev/day Decay rate: 3.8e-07 rev/day^2 Epoch rev: 45795 Checksum: 363
Satellite: CO-55 Catalog number: 27844 Epoch time: 11180.57110169 Element set: 0142 Inclination: 098.7046 deg RA of node: 189.0910 deg Eccentricity: 0.0009859 Arg of perigee: 157.4224 deg Mean anomaly: 202.7388 deg Mean motion: 14.20820702 rev/day Decay rate: 9.8e-07 rev/day^2 Epoch rev: 41467 Checksum: 307
Satellite: CO-57 Catalog number: 27848 Epoch time: 11180.58686348 Element set: 0092 Inclination: 098.7113 deg RA of node: 188.2988 deg Eccentricity: 0.0009825 Arg of perigee: 161.3682 deg Mean anomaly: 198.7847 deg Mean motion: 14.20599126 rev/day Decay rate: 7.8e-07 rev/day^2 Epoch rev: 41462 Checksum: 361
Satellite: AO-51 Catalog number: 28375 Epoch time: 11180.47275479 Element set: 0008 Inclination: 098.0986 deg RA of node: 158.2718 deg Eccentricity: 0.0085036 Arg of perigee: 033.0985 deg Mean anomaly: 327.5485 deg Mean motion: 14.40764573 rev/day Decay rate: 6.9e-07 rev/day^2 Epoch rev: 36783 Checksum: 345
Satellite: CP3 Catalog number: 31129 Epoch time: 11180.75590083 Element set: 0906 Inclination: 097.8980 deg RA of node: 204.2433 deg Eccentricity: 0.0103999 Arg of perigee: 141.3111 deg Mean anomaly: 219.5574 deg Mean motion: 14.52505160 rev/day Decay rate: 1.27e-06 rev/day^2 Epoch rev: 22266 Checksum: 283
Satellite: CO-65 Catalog number: 32785 Epoch time: 11180.77133403 Element set: 0030 Inclination: 097.8487 deg RA of node: 244.4246 deg Eccentricity: 0.0015806 Arg of perigee: 132.2842 deg Mean anomaly: 227.9675 deg Mean motion: 14.82034030 rev/day Decay rate: 4.26e-06 rev/day^2 Epoch rev: 17140 Checksum: 287
Satellite: PRISM Catalog number: 33493 Epoch time: 11173.49496518 Element set: 701 Inclination: 098.1259 deg RA of node: 302.1833 deg Eccentricity: 0.0020266 Arg of perigee: 027.8899 deg Mean anomaly: 332.3399 deg Mean motion: 14.81742215 rev/day Decay rate: 7.89e-06 rev/day^2 Epoch rev: 13030 Checksum: 309
Satellite: SOHLA-1 Catalog number: 33496 Epoch time: 11180.85023781 Element set: 0450 Inclination: 098.0818 deg RA of node: 290.5547 deg Eccentricity: 0.0007683 Arg of perigee: 083.8912 deg Mean anomaly: 276.3161 deg Mean motion: 14.69628887 rev/day Decay rate: -.00000000 rev/day^2 Epoch rev: 13034 Checksum: 301
Satellite: TISAT-1 Catalog number: 36799 Epoch time: 11173.47572888 Element set: 975 Inclination: 098.1013 deg RA of node: 241.7788 deg Eccentricity: 0.0013921 Arg of perigee: 259.1897 deg Mean anomaly: 100.7748 deg Mean motion: 14.80586897 rev/day Decay rate: 5.61e-06 rev/day^2 Epoch rev: 5109 Checksum: 354
Satellite: STUDSAT Catalog number: 36801 Epoch time: 11180.78181260 Element set: 0233 Inclination: 098.1052 deg RA of node: 249.0326 deg Eccentricity: 0.0012589 Arg of perigee: 222.8106 deg Mean anomaly: 137.2123 deg Mean motion: 14.80717874 rev/day Decay rate: 1.737e-05 rev/day^2 Epoch rev: 05216 Checksum: 273
Satellite: RAX Catalog number: 37223 Epoch time: 11152.36844328 Element set: 0173 Inclination: 071.9713 deg RA of node: 073.6151 deg Eccentricity: 0.0021634 Arg of perigee: 311.5989 deg Mean anomaly: 048.3343 deg Mean motion: 14.77415682 rev/day Decay rate: 6.35e-06 rev/day^2 Epoch rev: 02854 Checksum: 291
Satellite: OOREOS Catalog number: 37224 Epoch time: 11153.29456974 Element set: 0179 Inclination: 071.9726 deg RA of node: 071.8135 deg Eccentricity: 0.0020315 Arg of perigee: 307.7637 deg Mean anomaly: 052.1684 deg Mean motion: 14.77036357 rev/day Decay rate: 4.92e-06 rev/day^2 Epoch rev: 02867 Checksum: 309
Satellite: FO-69 Catalog number: 37227 Epoch time: 11181.53936136 Element set: 0067 Inclination: 071.9704 deg RA of node: 009.8266 deg Eccentricity: 0.0018584 Arg of perigee: 257.3365 deg Mean anomaly: 102.5733 deg Mean motion: 14.76605354 rev/day Decay rate: 2.44e-06 rev/day^2 Epoch rev: 01129 Checksum: 308
Satellite: NANOSALD Catalog number: 37361 Epoch time: 11174.52327160 Element set: 0250 Inclination: 071.9550 deg RA of node: 019.4208 deg Eccentricity: 0.0044931 Arg of perigee: 112.1569 deg Mean anomaly: 248.4010 deg Mean motion: 15.02018741 rev/day Decay rate: 7.2655e-04 rev/day^2 Epoch rev: 02307 Checksum: 256
Satellite: FO-70 Catalog number: 37380 Epoch time: 11181.48738262 Element set: 0203 Inclination: 071.9736 deg RA of node: 010.0653 deg Eccentricity: 0.0019150 Arg of perigee: 254.7400 deg Mean anomaly: 105.1644 deg Mean motion: 14.76370961 rev/day Decay rate: 1.97e-06 rev/day^2 Epoch rev: 03282 Checksum: 278
/EX SB KEPS @ AMSAT $ORB11181.W Orbital Elements 11181.WEATHER
HR AMSAT ORBITAL ELEMENTS FOR WEATHER SATELLITES FROM WA5QGD FORT WORTH,TX June 30, 2011 Send Subscribe/unsubscribe to KEPS at http://www.amsat.org/mailman/listinfo/keps BID: ORB11181.W TO ALL RADIO AMATEURS BT
